Regional Weather Roundup
Issued by NWS

Home | Current Version | Previous Version | Text Only | Print | Product List | Glossary On
Versions: 1 2 3 4 5 6 7 8 9 10 11 12 13 14 15 16 17 18 19 20 21 22 23 24 25 26 27 28 29 30 31 32 33 34 35 36 37 38 39 40 41 42 43 44 45 46 47 48 49 50
000
ASUS45 KBOI 040610
RWRID

IDAHO REGIONAL WEATHER ROUNDUP
NATIONAL WEATHER SERVICE BOISE ID
1200 AM MDT FRI SEP 04 2015

NOTE: "FAIR" INDICATES FEW OR NO CLOUDS BELOW 12000 FEET
WITH NO SIGNIFICANT WEATHER AND/OR OBSTRUCTIONS TO VISIBILITY

IDZ012-014-040700-
SOUTHWEST IDAHO


CITY           SKY/WX    TMP DP  RH WIND       PRES   REMARKS
BOISE          PTCLDY    59  41  51 W6        29.85S
CALDWELL       PTCLDY    57  37  47 W10       29.87S
MOUNTAIN HOME  MOCLDY    60  41  49 W12       29.85S
$$

IDZ016-017-040700-
SOUTHCENTRAL IDAHO


CITY           SKY/WX    TMP DP  RH WIND       PRES   REMARKS
BURLEY         PTCLDY    55  40  56 SW10      29.86S
JEROME         CLOUDY    57  38  48 SW8       29.86F
TWIN FALLS     CLOUDY    60  36  40 SW13      29.88S
$$

IDZ019>023-040700-
SOUTHEAST IDAHO


CITY           SKY/WX    TMP DP  RH WIND       PRES   REMARKS
IDAHO FALLS    MOCLDY    59  48  67 N7        29.83F
POCATELLO      CLEAR     58  43  57 SW14      29.87R
REXBURG        MOCLDY    62  45  53 E5        29.84F
$$

IDZ006-010-011-018-031-032-040700-
CENTRAL IDAHO MOUNTAINS


CITY           SKY/WX    TMP DP  RH WIND       PRES   REMARKS
MCCALL         PTCLDY    42  39  89 NW3       29.94S
HAILEY         CLOUDY    57  39  51 N8        29.89F
STANLEY          N/A     48  35  60 VRB3      30.01S
SALMON         CLOUDY    54  41  62 N5        29.94S
CHALLIS        CLOUDY    54  41  61 NW8       29.92F
$$

IDZ002-004-006-007-026-040700-
NORTHERN IDAHO


CITY           SKY/WX    TMP DP  RH WIND       PRES   REMARKS
LEWISTON       CLEAR     52  41  66 SE5       29.94S
LOWELL           N/A     51  48  89 N3        29.99S
COEUR D`ALENE  CLEAR     45  32  61 CALM      29.95R
MULLAN PASS    MOCLDY    39  36  89 S3        30.00S
$$


USA.gov is the U.S. government's official web portal to all federal, state and local government web resources and services.